Location: *
(40.7765°S, 106.5327°E)
Time: 14:53:23
(UTC+00:00)

Cosmos 968 Rocket - Pass Details

Date: 26 May 2022
Orbit: 741 x 770 km, 74.0° (Epoch: 04 July)

Event Time Altitude Azimuth Distance (km) Brightness Sun altitude
Rises 10:41:18 0° 200° (SSW) 3,280 6.8 -11.9°
Reaches altitude 10° 10:43:42 10° 199° (SSW) 2,344 6.0 -12.3°
Maximum altitude 10:49:03 88° 109° (ESE) 782 3.5 -13.3°
Drops below altitude 10° 10:54:18 10° 18° (NNE) 2,301 6.0 -14.3°
Sets 10:56:39 0° 18° (NNE) 3,215 6.7 -14.7°
